Location: Brivio
(45.7333°N, 9.4500°E)
Time: 10:46:07
(UTC+00:00)

SJ 16-02 - Pass Details

Date: 18 October 2019
Orbit: 607 x 616 km, 75.0° (Epoch: 14 November)

Event Time Altitude Azimuth Distance (km) Brightness Sun altitude
Rises 19:13:43 0° 342° (NNW) 2,881 5.2 -28.8°
Reaches altitude 10° 19:15:59 10° 346° (NNW) 1,971 4.3 -29.2°
Enters shadow 19:17:24 20° 350° (N) 1,429 3.4 -29.4°
